CMS-01 (47256 NORAD) Tracking and Keplerian Element Data

This shows tracking and keplerian element data for the satellite.

Feedback or suggestion? Click here.




ElementValue
Catalog47256
NameCMS-01
Epoch Orbit80
Epoch Day60.90861242
Epoch Year2021
RAAN272.0988
Inclination0.0374
Eccentricity0.0006661
Argument of Perigee15.9459
Mean Anonmoly281.9684
Mean Motion1.0027258
Decay Rate-1.73E-06
L11 47256U 20099A 21060.90861242 -.00000173 00000-0 00000+0 0 9996
L22 47256 0.0374 272.0988 0006661 15.9459 281.9684 1.00272580 809

Live tracking and technical data element details for CMS-01 (NORAD 47256). CMS-01 can be tracked NOW for your location showing map with azimuth and elevation plus other details from your city location.

Track the satellite on the map from your city or location and see movement details for azimuth, elevation, latitude, longitude, range, height, and movement on the map or in text.







IsCatalogInMostPopularTable: catalog: 47256, numindb: 21
Update: records affected: 1



GetName: 47256 CMS-01

Hit Count: updated at: Tue, 02 Mar 2021 13:16:29 GMT